Weather History for EHRD - September, 2014

Change the Weather History Date:

Tuesday, September 16, 2014

  Actual Average Record
Temperature  
Mean Temperature 64 °F -  
Max Temperature 75 °F 60 °F 78 °F (2006)
Min Temperature 52 °F 48 °F 41 °F (1996)
Degree Days  
Heating Degree Days 2    
Growing Degree Days 14 (Base 50)    
Moisture  
Dew Point 58 °F    
Average Humidity 84    
Maximum Humidity 100    
Minimum Humidity 44    
Precipitation  
Precipitation 0.00 in - - ()
Sea Level Pressure  
Sea Level Pressure 29.97 in    
Wind  
Wind Speed 3 mph ()    
Max Wind Speed 8 mph    
Max Gust Speed -    
Visibility 3.3 miles    
Events Fog , Rain    
Averages and records for this station are not official NWS values.
T = Trace of Precipitation, MM = Missing Value Source: Averaged Metar Reports

Daily Weather History Graph

Daily Weather History Graph

Search for Another Location

Airport or City:

Trip Planner

Search our weather history database for the weather conditions in past years. The results will help you decide how hot, cold, wet, or windy it might be!

Date:

Astronomy

Sep. 16, 2014 Rise Set
Actual Time 7:18 AM CEST 7:55 PM CEST
Civil Twilight 6:44 AM CEST 8:28 PM CEST
Nautical Twilight 6:03 AM CEST 9:09 PM CEST
Astronomical Twilight 5:20 AM CEST 9:52 PM CEST
Moon No Moon Rise 3:37 PM CEST (9/16)
Length of Visible Light 13h 44m
Length of Day
12h 36m
Waning Gibbous, 47% of the Moon is Illuminated
Sep 16
Waning Gibbous
Sep 24
New
Oct 1
First Quarter
Oct 8
Full
Oct 15
Last Quarter

Hourly Weather History & Observations

Time (CEST) Temp. Dew Point Humidity Pressure Visibility Wind Dir Wind Speed Gust Speed Precip Events Conditions
12:00 AM 59 °F 59 °F 99% 30.01 in 2 mi NNE 2.2 mph - -   Mist
12:25 AM 57.2 °F 57.2 °F 100% 30.01 in 1.1 mi North 1.2 mph - N/A   Partly Cloudy
12:55 AM 57.2 °F 57.2 °F 100% 30.01 in 1.4 mi NNE 2.3 mph - N/A   Mist
1:00 AM 56 °F 56 °F 100% 30.01 in 0 mi NNE 2.2 mph - - Fog Fog
1:25 AM 57.2 °F 57.2 °F 100% 29.98 in 0.8 mi NNE 2.3 mph - N/A   Mist
1:55 AM 57.2 °F 57.2 °F 100% 30.01 in 1.3 mi NE 3.5 mph - N/A   Mist
2:00 AM 55 °F 54 °F 96% 30.01 in 0 mi Calm Calm - - Fog Fog
2:25 AM 53.6 °F 53.6 °F 100% 30.01 in - NE 2.3 mph - N/A Fog Fog
2:55 AM 55.4 °F 55.4 °F 100% 30.01 in 0.6 mi NE 2.3 mph - N/A   Mostly Cloudy
3:00 AM 55 °F 55 °F 100% 30.01 in 1 mi NE 2.2 mph - - Fog Fog
3:25 AM 57.2 °F 57.2 °F 100% 29.98 in 0.3 mi NE 2.3 mph - N/A Fog Fog
3:55 AM 53.6 °F 53.6 °F 100% 29.98 in 0.1 mi NNE 2.3 mph - N/A Fog Fog
4:00 AM 53 °F 53 °F 100% 30.00 in 0 mi NNE 2.2 mph - - Fog Fog
4:25 AM 55.4 °F 55.4 °F 100% 29.98 in 0.8 mi NE 2.3 mph - N/A   Mist
4:55 AM 55.4 °F 55.4 °F 100% 29.98 in 0.2 mi NNE 2.3 mph - N/A Fog Fog
5:00 AM 54 °F 53 °F 96% 29.99 in 0 mi NNE 2.2 mph - - Fog Fog
5:25 AM 53.6 °F 53.6 °F 100% 29.98 in 0.3 mi NNE 2.3 mph - N/A Fog Fog
5:55 AM 53.6 °F 53.6 °F 100% 29.98 in 0.2 mi NNE 2.3 mph - N/A Fog Fog
6:00 AM 54 °F 53 °F 97% 29.99 in 0 mi North 2.2 mph - - Fog Fog
6:25 AM 55.4 °F 55.4 °F 100% 29.98 in 0.1 mi North 2.3 mph - N/A Fog Fog
6:55 AM 55.4 °F 55.4 °F 100% 29.98 in 0.1 mi NE 2.3 mph - N/A Fog Fog
7:00 AM 56 °F 56 °F 98% 30.00 in 0 mi NE 4.5 mph - - Fog Fog
7:25 AM 57.2 °F 57.2 °F 100% 29.98 in 0.1 mi ENE 4.6 mph - N/A   Drizzle
7:55 AM 57.2 °F 57.2 °F 100% 29.98 in 0.2 mi NE 2.3 mph - N/A Fog Fog
8:00 AM 56 °F 56 °F 100% 30.00 in 0 mi NE 2.2 mph - - Fog Fog
8:25 AM 57.2 °F 57.2 °F 100% 29.98 in 0.5 mi ENE 3.5 mph - N/A Fog Fog
8:55 AM 59.0 °F 59.0 °F 100% 29.98 in 1.1 mi ENE 2.3 mph - N/A   Partly Cloudy
9:00 AM 59 °F 59 °F 100% 30.00 in 1 mi ENE 2.2 mph - - Fog Fog
9:25 AM 60.8 °F 60.8 °F 100% 29.98 in 1.3 mi East 4.6 mph - N/A   Mist
9:55 AM 64.4 °F 60.8 °F 88% 29.98 in 2.8 mi East 4.6 mph - N/A   Mist
10:00 AM 63 °F 61 °F 91% 30.01 in 3 mi ESE 6.7 mph - -   Mist
10:25 AM 64.4 °F 60.8 °F 88% 30.01 in 3.1 mi East 4.6 mph - N/A   Mist
10:55 AM 68.0 °F 60.8 °F 78% 30.01 in 5.0 mi East 4.6 mph - N/A   Unknown
11:00 AM 67 °F 60 °F 73% 30.01 in 4 mi East 6.7 mph - -   Mist
11:25 AM 68.0 °F 60.8 °F 78% 30.01 in 5.0 mi East 5.8 mph - N/A   Unknown
11:55 AM 69.8 °F 60.8 °F 73% 29.98 in 6.2 mi East 6.9 mph - N/A   Unknown
12:00 PM 69 °F 61 °F 69% 30.00 in 7 mi East 6.7 mph - -   Overcast
12:25 PM 71.6 °F 62.6 °F 73% 29.98 in 6.2 mi East 6.9 mph - N/A   Unknown
12:55 PM 69.8 °F 60.8 °F 73% 29.98 in 6.2 mi East 5.8 mph - N/A   Unknown
1:00 PM 71 °F 62 °F 67% 29.99 in 6 mi East 6.7 mph - -   Partly Cloudy
1:25 PM 71.6 °F 60.8 °F 69% 29.98 in 6.2 mi East 3.5 mph - N/A   Unknown
1:55 PM 71.6 °F 60.8 °F 69% 29.98 in 6.2 mi East 4.6 mph - N/A   Unknown
2:00 PM 73 °F 60 °F 56% 29.98 in 7 mi East 4.5 mph - -   Partly Cloudy
2:25 PM 73.4 °F 59.0 °F 61% 29.95 in 6.2 mi East 6.9 mph - N/A   Unknown
2:55 PM 73.4 °F 60.8 °F 65% 29.95 in 6.2 mi East 5.8 mph - N/A   Unknown
3:00 PM 72 °F 60 °F 58% 29.97 in 7 mi ESE 6.7 mph - -   Overcast
3:25 PM 73.4 °F 60.8 °F 65% 29.95 in 6.2 mi ESE 3.5 mph - N/A   Unknown
3:55 PM 75.2 °F 59.0 °F 57% 29.95 in 6.2 mi East 5.8 mph - N/A   Unknown
4:00 PM 75 °F 57 °F 44% 29.95 in 11 mi East 4.5 mph - -   Mostly Cloudy
4:25 PM 73.4 °F 59.0 °F 61% 29.95 in 6.2 mi ENE 8.1 mph - N/A   Unknown
4:55 PM 73.4 °F 59.0 °F 61% 29.95 in 6.2 mi East 6.9 mph - N/A   Unknown
5:00 PM 74 °F 59 °F 50% 29.95 in 13 mi East 6.7 mph - -  
5:25 PM 73.4 °F 59.0 °F 61% 29.95 in 6.2 mi East 5.8 mph - N/A   Unknown
5:55 PM 73.4 °F 59.0 °F 61% 29.92 in 6.2 mi East 4.6 mph - N/A   Unknown
6:00 PM 72 °F 58 °F 53% 29.95 in 11 mi East 4.5 mph - -   Scattered Clouds
6:25 PM 73.4 °F 59.0 °F 61% 29.92 in 6.2 mi East 3.5 mph - N/A   Unknown
6:55 PM 73.4 °F 59.0 °F 61% 29.92 in 6.2 mi East 2.3 mph - N/A   Unknown
7:00 PM 72 °F 57 °F 50% 29.94 in 11 mi East 2.2 mph - -  
7:25 PM 69.8 °F 60.8 °F 73% 29.92 in 6.2 mi East 2.3 mph - N/A   Unknown
7:55 PM 68.0 °F 62.6 °F 83% 29.92 in 3.7 mi North 4.6 mph - N/A   Unknown
8:00 PM 68 °F 62 °F 77% 29.94 in 3 mi North 4.5 mph - -   Light Haze
8:25 PM 68.0 °F 62.6 °F 83% 29.92 in 3.1 mi NNE 4.6 mph - N/A Rain Light Rain Showers
8:55 PM 66.2 °F 62.6 °F 88% 29.95 in - NNE 3.5 mph - N/A   Mist
9:00 PM 64 °F 62 °F 89% 29.95 in 2 mi NNE 2.2 mph - - Rain Rain
9:25 PM 62.6 °F 62.6 °F 100% 29.95 in - NNE 1.2 mph - N/A   Mist
9:55 PM 62.6 °F 60.8 °F 94% 29.95 in 1.5 mi NNE 1.2 mph - N/A   Mist
10:00 PM 61 °F 61 °F 99% 29.95 in 1 mi NNE 2.2 mph - -   Mist
10:25 PM 60.8 °F 59.0 °F 94% 29.92 in 1.5 mi North 1.2 mph - N/A   Mist
10:55 PM 59.0 °F 59.0 °F 100% 29.95 in 1.2 mi North 1.2 mph - N/A   Mist
11:00 PM 59 °F 58 °F 97% 29.95 in 1 mi Calm Calm - - Fog Fog
11:25 PM 59.0 °F 59.0 °F 100% 29.95 in 0.2 mi North 1.2 mph - N/A Fog Fog
11:55 PM 59.0 °F 59.0 °F 100% 29.95 in 0.4 mi North 1.2 mph - N/A Fog Fog